Location: Rounton
(54.4000°N, 1.3500°W)
Time: 20:21:29
(UTC+01:00)

YAOGAN 20A - Pass Details

Date: 30 June 2022
Orbit: 891 x 1288 km, 63.4° (Epoch: 18 August)

Event Time Altitude Azimuth Distance (km) Brightness Sun altitude
Rises 01:36:15 0° 310° (NW) 3,808 8.5 -12.2°
Reaches altitude 10° 01:38:47 10° 310° (NW) 2,906 7.8 -12.2°
Maximum altitude 01:45:44 79° 225° (SW) 1,172 5.2 -12.0°
Drops below altitude 10° 01:53:22 10° 140° (SE) 3,175 7.2 -11.8°
Sets 01:56:14 0° 140° (SE) 4,179 7.8 -11.8°
